[[{"header":{"parameterUnit":"m.s-1","parameterCategory":1,"la1":30.2992,"la2":30.254,"lo1":-89.0895,"lo2":-89.0443,"dy":0.0025,"dx":0.0025,"nx":19,"ny":19,"refTime":"2026-05-15T21:00:00:Z","depth":0,"parameterNumber":2,"parameterNumberName":"U-component_of_WINDS"},"data":[0,0,0,-3.0876,-3.0877,-3.0875,-3.0875,-3.0894,-3.0895,0,0,0,0,0,0,0,0,0,0,0,-3.0888,-3.0889,-3.0876,-3.0877,-3.0875,-3.0875,-3.0894,-3.0895,0,0,0,0,0,0,0,0,0,0,0,-3.0888,-3.0889,-3.0889,-3.0877,-3.0875,-3.0875,-3.0894,-3.0888,0,0,0,0,0,0,0,0,0,0,-3.0886,-3.0908,-3.0889,-3.0889,-3.0877,-3.0875,-3.0875,-3.0888,-3.0889,-3.0904,0,-3.0919,0,-3.0908,-3.0897,-3.0897,0,0,0,-3.0868,-3.0907,-3.0896,-3.089,-3.0877,-3.0875,-3.0873,-3.0888,-3.0889,-3.0905,-3.0919,-3.092,-3.0908,-3.0898,-3.0898,-3.1011,-3.1012,0,0,-3.0868,-3.0895,-3.0896,-3.0898,-3.0898,-3.0874,-3.0874,-3.0888,-3.0906,-3.0919,-3.092,-3.0908,-3.0898,-3.0898,-3.101,-3.1012,0,0,0,-3.0874,-3.0895,-3.0883,-3.0897,-3.0896,-3.0874,-3.0874,-3.0905,-3.0899,-3.092,-3.0908,-3.0898,-3.0899,-3.1009,-3.1011,-3.1081,0,0,0,-3.0874,-3.0898,-3.0884,-3.09,-3.0896,-3.09,-3.0891,-3.0898,-3.0899,-3.0908,-3.0898,-3.0899,-3.1008,-3.101,-3.1077,-3.1109,0,0,0,-3.0885,-3.0899,-3.0903,-3.0901,-3.0901,-3.0899,-3.0894,-3.0898,-3.0892,-3.0898,-3.0899,-3.1008,-3.101,-3.1073,-3.1103,-3.1146,0,0,0,-3.0904,-3.0966,-3.0905,-3.097,-3.0902,-3.0943,-3.0893,-3.0923,-3.0936,-3.0898,-3.1008,-3.1011,-3.1072,-3.1099,-3.1142,-3.1186,-3.1207,0,0,-3.0997,-3.0978,-3.1015,-3.096,-3.1018,-3.0941,-3.101,-3.0997,-3.0975,-3.1001,-3.1003,-3.1078,-3.1103,-3.1145,-3.1318,-3.1335,0,0,0,-3.1053,-3.1079,-3.1089,-3.1102,-3.1094,-3.1089,-3.1063,-3.1059,-3.108,-3.0993,-3.1105,-3.1119,-3.1143,-3.1163,-3.1177,-3.1196,-3.1021,-3.1021,-3.1021,-3.1222,-3.1189,-3.1247,-3.1214,-3.1228,-3.12,-3.1209,-3.1198,-3.1161,-3.1189,-3.1196,-3.1304,-3.1328,-3.1339,-3.1359,-3.1217,-3.1218,-3.1218,-3.1218,-3.1355,-3.1386,-3.1336,-3.1374,-3.134,-3.1372,-3.1349,-3.1322,-3.1348,-3.1296,-3.1316,-3.1261,-3.1358,-3.1374,-3.1223,-3.1222,-3.1221,-3.1221,-3.1221,-3.146,-3.147,-3.1463,-3.1479,-3.1495,-3.146,-3.1487,-3.1455,-3.1425,-3.1445,-3.1448,-3.1447,-3.1441,-3.1449,-3.1449,-3.145,-3.145,-3.145,-3.1451,-3.1572,-3.1563,-3.1588,-3.1585,-3.1589,-3.1591,-3.1566,-3.157,-3.1566,-3.154,-3.154,-3.1501,-3.1374,-3.1342,-3.1456,-3.1455,-3.1455,-3.1454,-3.1454,-3.1717,-3.1679,-3.1719,-3.1724,-3.1718,-3.1736,-3.1695,-3.1706,-3.1705,-3.1719,-3.1676,-3.1588,-3.1567,-3.1555,-3.1528,-3.1683,-3.1683,-3.1683,-3.1683,-3.1806,-3.1792,-3.1825,-3.1835,-3.184,-3.1807,-3.1855,-3.1836,-3.1811,-3.1809,-3.1782,-3.1745,-3.1734,-3.1719,-3.1704,-3.1678,-3.1868,-3.1868,-3.1868,-3.1893,-3.1878,-3.1924,-3.1898,-3.1891,-3.1886,-3.193,-3.1943,-3.1908,-3.1875,-3.1806,-3.1798,-3.1737,-3.1719,-3.1684,-3.1661,-3.1613,0,0]},{"header":{"parameterUnit":"m.s-1","parameterCategory":1,"la1":30.2992,"la2":30.254,"lo1":-89.0895,"lo2":-89.0443,"dy":0.0025,"dx":0.0025,"nx":19,"ny":19,"refTime":"2026-05-15T21:00:00:Z","depth":0,"parameterNumber":3,"parameterNumberName":"V-component_of_WINDS"},"data":[0,0,0,3.3578,3.3578,3.3598,3.3598,3.3628,3.3628,0,0,0,0,0,0,0,0,0,0,0,3.3576,3.3576,3.3578,3.3578,3.3598,3.3598,3.3628,3.3628,0,0,0,0,0,0,0,0,0,0,0,3.3576,3.3576,3.3576,3.3579,3.3598,3.3598,3.3628,3.3611,0,0,0,0,0,0,0,0,0,0,3.3591,3.3593,3.3576,3.3576,3.3579,3.3598,3.3598,3.361,3.3612,3.3621,0,3.3631,0,3.363,3.3631,3.3631,0,0,0,3.3576,3.3591,3.3593,3.3576,3.3579,3.3598,3.3588,3.3611,3.3613,3.3624,3.3631,3.3632,3.3631,3.3631,3.3631,3.3695,3.3695,0,0,3.3575,3.3581,3.3592,3.3595,3.3593,3.3588,3.3589,3.3612,3.3621,3.3632,3.3633,3.3631,3.3631,3.3631,3.3694,3.3695,0,0,0,3.3573,3.358,3.3582,3.3594,3.3597,3.3588,3.359,3.362,3.362,3.3633,3.3632,3.3631,3.3632,3.3694,3.3695,3.3722,0,0,0,3.3573,3.358,3.3581,3.3586,3.3597,3.3609,3.3597,3.3618,3.362,3.3631,3.3631,3.3632,3.3693,3.3694,3.3721,3.3734,0,0,0,3.3573,3.358,3.3584,3.3586,3.3595,3.3608,3.3609,3.3618,3.362,3.3631,3.3632,3.3693,3.3694,3.3719,3.3732,3.3753,0,0,0,3.3576,3.3608,3.3584,3.362,3.3594,3.3625,3.3609,3.3632,3.3645,3.3631,3.3694,3.3695,3.3718,3.373,3.3751,3.3772,3.3781,0,0,3.362,3.3614,3.3634,3.3613,3.365,3.3622,3.3663,3.3668,3.3663,3.3684,3.3686,3.3721,3.3731,3.3753,3.3832,3.3839,0,0,0,3.365,3.3665,3.3673,3.3686,3.3691,3.3697,3.3695,3.3697,3.3715,3.3676,3.3734,3.374,3.3753,3.3762,3.3768,3.3778,3.3699,3.3699,3.3699,3.3723,3.3715,3.3748,3.3742,3.3755,3.3753,3.3762,3.3764,3.3752,3.3766,3.3773,3.3822,3.3833,3.3838,3.3848,3.3783,3.3783,3.3783,3.3783,3.3787,3.3806,3.379,3.3816,3.3807,3.3829,3.3828,3.3819,3.3838,3.3816,3.3826,3.3803,3.3846,3.3855,3.3785,3.3785,3.3785,3.3785,3.3784,3.3833,3.3841,3.3843,3.3861,3.3875,3.3868,3.3887,3.3878,3.387,3.388,3.3886,3.3885,3.3884,3.3883,3.3884,3.3884,3.3884,3.3884,3.3884,3.3881,3.3882,3.3899,3.3908,3.3914,3.3922,3.3921,3.3927,3.3932,3.3924,3.3924,3.3911,3.3852,3.3837,3.3887,3.3886,3.3886,3.3886,3.3886,3.3949,3.3932,3.3959,3.3966,3.3974,3.3989,3.3978,3.3992,3.3996,3.4005,3.399,3.3948,3.394,3.3935,3.3923,3.3991,3.3991,3.3991,3.3991,3.3988,3.3984,3.4009,3.402,3.4031,3.4023,3.4053,3.4052,3.4048,3.405,3.4039,3.4022,3.4017,3.4013,3.4006,3.3994,3.4079,3.408,3.408,3.403,3.4026,3.4053,3.4049,3.4056,3.4061,3.4089,3.4102,3.4095,3.4083,3.4051,3.4048,3.402,3.4012,3.4,3.3989,3.3968,0,0]}]]